This is the latest recevied weather packets stored in our database for station/object EFOU. If no packets are shown the sender has not sent any weather packets the latest 10 day(s).
| Time | Temp. | Humidity | Pressure | Rain* | Wind** | Luminosity | Snow |
|---|---|---|---|---|---|---|---|
| 1777602413 | 4.44° C | 83% | 1016.2 hPa | - | - | - | - |
| 1777601213 | 4.44° C | 82% | 1016.1 hPa | - | - | - | - |
| 1777600013 | 4.44° C | 84% | 1016.2 hPa | - | - | - | - |
| 1777598813 | 4.44° C | 84% | 1016.3 hPa | - | - | - | - |
| 1777597613 | 3.89° C | 86% | 1016.6 hPa | - | - | - | - |
| 1777596413 | 3.89° C | 86% | 1016.7 hPa | - | - | - | - |
| 1777595213 | 3.89° C | 88% | 1016.8 hPa | - | - | - | - |
| 1777594013 | 4.44° C | 84% | 1017 hPa | - | - | - | - |
| 1777592813 | 5° C | 83% | 1017.1 hPa | - | - | - | - |
| 1777591613 | 5° C | 82% | 1017.1 hPa | - | - | - | - |
| 1777590412 | 5° C | 84% | 1017 hPa | - | - | - | - |
| 1777589212 | 5° C | 84% | 1017.2 hPa | - | - | - | - |
| 1777588012 | 5.56° C | 83% | 1017.2 hPa | - | - | - | - |
| 1777586812 | 5.56° C | 82% | 1017.4 hPa | - | - | - | - |
| 1777585612 | 6.11° C | 81% | 1017.5 hPa | - | - | - | - |
| 1777584413 | 5.56° C | 86% | 1017.6 hPa | - | - | - | - |
| 1777583212 | 6.11° C | 84% | 1017.6 hPa | - | - | - | - |
| 1777582012 | 6.67° C | 82% | 1017.8 hPa | - | - | - | - |
| 1777580812 | 7.22° C | 77% | 1017.9 hPa | - | - | - | - |
| 1777579612 | 7.22° C | 77% | 1018 hPa | - | - | - | - |
| 1777578412 | 7.22° C | 76% | 1018.2 hPa | - | - | - | - |
| 1777577212 | 7.22° C | 76% | 1018.2 hPa | - | - | - | - |
| 1777576011 | 6.67° C | 78% | 1018.3 hPa | - | - | - | - |
| 1777574812 | 6.67° C | 79% | 1018.2 hPa | - | - | - | - |
| 1777573611 | 6.67° C | 78% | 1018.3 hPa | - | - | - | - |
* Rain since midnight (hover to see other rain measurements)
** Current wind speed in m/s (hover to see current wind gust speed)